Flag for U.S.A. Weather past 2 weeks in Bismarck, North Dakota, U.S.A.

Now
5 °F

Clear.


Feels Like: -9 °F
Forecast: -11 / 1 °F
Wind: 9 mph from Northwest

Location: Bismarck Municipal Airport

Current Time: Mar 3, 2015 at 9:53:44 PM

Latest Report: Mar 3, 2015 at 8:52 PM


Visibility: 10 mi

Pressure: 30.19 "Hg

Humidity: 66%

Dew point: -4 °F

Location of BismarckLocation

Historic Weather in Bismarck — Graph

°F

Bismarck temperature yesterday

Maximum temperature yesterday: 41 °F (at 3:52 PM)
Minimum temperature yesterday: 3 °F (at 1:52 AM)
Average temperature yesterday: 22 °F

Past Weeks' High & Low Weather Summary

 TemperatureHumidityPressure
High41 °F (Mar 2, 3:52 PM)92% (Feb 20, 5:52 AM)30.90 "Hg (Feb 20, 5:52 AM)
Low-14 °F (Feb 22, 6:52 AM)30% (Feb 23, 3:52 PM)29.71 "Hg (Feb 20, 3:02 AM)
Average12 °F68%30.28 "Hg
* Reported Feb 16 8:52 PM — Mar 3 8:52 PM, Bismarck, Weather by CustomWeather, © 2015

Note: Actual official high and low records may vary slightly from our data, if they occured in-between our weather recording intervals... More about our weather records

Advertising

Bismarck weather history for previous 24 hours

 ConditionsComfort  
Time TempWeatherWind HumidityBarometerVisibility
8:52 PM
Tue, Mar 3
5 °FClear.9 mph66%30.19 "Hg10 mi
7:52 PM6 °FClear.12 mph63%30.17 "Hg10 mi
6:52 PM8 °FClear.13 mph60%30.14 "Hg10 mi
5:52 PM10 °FPartly sunny.18 mph58%30.13 "Hg10 mi
4:52 PM11 °FLight snow. Mostly cloudy.16 mph67%30.12 "Hg5 mi
3:52 PM11 °FOvercast.17 mph56%30.11 "Hg8 mi
2:52 PM13 °FPartly sunny.25 mph49%30.11 "Hg3 mi
1:52 PM14 °FPartly sunny.23 mph49%30.11 "Hg10 mi
12:52 PM14 °FOvercast.24 mph49%30.12 "Hg10 mi
11:52 AM11 °FPartly sunny.28 mph51%30.14 "Hg10 mi
10:52 AM10 °FPartly sunny.28 mph50%30.14 "Hg10 mi
9:52 AM9 °FSunny.23 mph52%30.13 "Hg10 mi
8:52 AM7 °FPartly sunny.24 mph60%30.12 "Hg10 mi
7:52 AM7 °FPassing clouds.16 mph66%30.09 "Hg10 mi
6:52 AM8 °FPassing clouds.17 mph66%30.06 "Hg10 mi
5:52 AM9 °FPassing clouds.25 mph58%30.04 "Hg10 mi
4:52 AM12 °FOvercast.22 mph58%30.01 "Hg10 mi
3:52 AM14 °FMostly cloudy.28 mph67%29.95 "Hg10 mi
2:52 AM17 °FMostly cloudy.25 mph70%29.95 "Hg10 mi
1:52 AM18 °FOvercast.20 mph74%29.96 "Hg10 mi
12:52 AM19 °FPassing clouds.25 mph74%29.90 "Hg10 mi
11:52 PM
Mon, Mar 2
22 °FPassing clouds.16 mph75%29.89 "Hg10 mi
10:52 PM28 °FClear.24 mph72%29.85 "Hg10 mi
9:52 PM27 °FClear.6 mph85%29.81 "Hg10 mi
Weather by CustomWeather, © 2015

See weather overviewHow to use our weather pages